Time,TemperatureF,DewpointF,PressureIn,WindDirection,WindDirectionDegrees,WindSpeedMPH,WindSpeedGustMPH,Humidity,HourlyPrecipIn,Conditions,Clouds,dailyrainin,SoftwareType,DateUTC
2013-10-30 00:00:00,34.6,33.3,30.05,ENE,67,4.0,7.0,95,0.00,,SKC,0.03,VWS V14.01,2013-10-30 05:00:00,
2013-10-30 00:04:00,35.1,33.8,30.03,ENE,67,5.0,6.0,95,0.00,,SKC,0.00,VWS V14.01,2013-10-30 05:04:00,
2013-10-30 00:09:00,35.1,33.8,30.02,ENE,67,6.0,7.0,95,0.00,,SKC,0.00,VWS V14.01,2013-10-30 05:09:00,
2013-10-30 00:14:00,35.2,33.9,30.02,ENE,67,5.0,7.0,95,0.00,,SKC,0.00,VWS V14.01,2013-10-30 05:14:00,
2013-10-30 00:19:00,35.3,34.0,30.02,ENE,67,5.0,7.0,95,0.00,,SKC,0.00,VWS V14.01,2013-10-30 05:19:00,
2013-10-30 00:24:00,35.2,33.9,30.02,ENE,67,4.0,7.0,95,0.00,,SKC,0.00,VWS V14.01,2013-10-30 05:24:00,
2013-10-30 00:29:00,35.2,33.9,30.02,ENE,67,2.0,7.0,95,0.00,,SKC,0.00,VWS V14.01,2013-10-30 05:29:00,
2013-10-30 00:30:00,34.8,33.5,30.03,ENE,67,4.0,6.0,95,0.00,,SKC,0.03,VWS V14.01,2013-10-30 05:30:00,
2013-10-30 00:34:00,35.2,33.9,30.02,ENE,67,2.0,4.0,95,0.00,,SKC,0.00,VWS V14.01,2013-10-30 05:34:00,
2013-10-30 00:39:00,35.2,33.9,30.02,ENE,67,4.0,5.0,95,0.00,,SKC,0.00,VWS V14.01,2013-10-30 05:39:00,
2013-10-30 00:44:00,35.2,33.9,30.02,ENE,67,1.0,5.0,95,0.00,,SKC,0.00,VWS V14.01,2013-10-30 05:44:00,
2013-10-30 00:49:00,35.2,33.9,30.02,ENE,67,0.0,5.0,95,0.00,,SKC,0.00,VWS V14.01,2013-10-30 05:49:00,
2013-10-30 00:54:00,35.2,33.9,30.02,ENE,67,0.0,5.0,95,0.00,,SKC,0.00,VWS V14.01,2013-10-30 05:54:00,
2013-10-30 00:59:00,35.2,33.9,30.02,ENE,67,0.0,5.0,95,0.00,,SKC,0.00,VWS V14.01,2013-10-30 05:59:00,
2013-10-30 01:00:00,35.1,33.8,30.03,ENE,67,4.0,6.0,95,0.00,,SKC,0.00,VWS V14.01,2013-10-30 06:00:00,
2013-10-30 01:04:00,35.2,33.9,30.02,ENE,67,0.0,0.0,95,0.00,,SKC,0.00,VWS V14.01,2013-10-30 06:04:00,
2013-10-30 01:09:00,35.2,33.9,30.02,ENE,67,0.0,2.0,95,0.00,,SKC,0.00,VWS V14.01,2013-10-30 06:09:00,
2013-10-30 01:14:00,35.2,33.9,30.01,ENE,67,0.0,2.0,95,0.00,,SKC,0.00,VWS V14.01,2013-10-30 06:14:00,
2013-10-30 01:19:00,35.3,34.0,30.01,ENE,67,2.0,5.0,95,0.00,,SKC,0.00,VWS V14.01,2013-10-30 06:19:00,
2013-10-30 01:24:00,35.4,34.1,30.01,ENE,67,4.0,6.0,95,0.00,,SKC,0.00,VWS V14.01,2013-10-30 06:24:00,
2013-10-30 01:29:00,35.4,34.1,30.01,ENE,67,4.0,6.0,95,0.00,,SKC,0.00,VWS V14.01,2013-10-30 06:29:00,
2013-10-30 01:30:00,35.2,33.9,30.02,ENE,67,4.0,7.0,95,0.00,,SKC,0.00,VWS V14.01,2013-10-30 06:30:00,
2013-10-30 01:34:00,35.3,34.0,30.01,ENE,67,2.0,4.0,95,0.00,,SKC,0.00,VWS V14.01,2013-10-30 06:34:00,
2013-10-30 01:39:00,35.3,34.0,30.01,ENE,67,1.0,5.0,95,0.00,,SKC,0.00,VWS V14.01,2013-10-30 06:39:00,
2013-10-30 01:44:00,35.2,33.9,30.00,ENE,67,0.0,5.0,95,0.00,,SKC,0.00,VWS V14.01,2013-10-30 06:44:00,
2013-10-30 01:49:00,35.2,33.9,30.00,ENE,67,4.0,5.0,95,0.00,,SKC,0.00,VWS V14.01,2013-10-30 06:49:00,
2013-10-30 01:55:00,35.2,33.9,30.01,ENE,67,0.0,5.0,95,0.00,,SKC,0.00,VWS V14.01,2013-10-30 06:55:00,
2013-10-30 02:00:00,35.2,33.9,30.00,ENE,67,0.0,5.0,95,0.00,,SKC,0.00,VWS V14.01,2013-10-30 07:00:00,
2013-10-30 02:05:00,35.2,33.9,30.00,ENE,67,4.0,4.0,95,0.00,,SKC,0.00,VWS V14.01,2013-10-30 07:05:00,
2013-10-30 02:10:00,35.2,33.9,30.00,ENE,67,2.0,4.0,95,0.00,,SKC,0.00,VWS V14.01,2013-10-30 07:10:00,
2013-10-30 02:15:00,35.2,33.9,30.00,ENE,67,4.0,5.0,95,0.00,,SKC,0.00,VWS V14.01,2013-10-30 07:15:00,
2013-10-30 02:20:00,35.2,33.9,30.00,ENE,67,4.0,6.0,95,0.00,,SKC,0.00,VWS V14.01,2013-10-30 07:20:00,
2013-10-30 02:25:00,35.4,34.1,30.00,ENE,67,4.0,6.0,95,0.00,,SKC,0.00,VWS V14.01,2013-10-30 07:25:00,
2013-10-30 02:30:00,35.3,34.0,30.00,ENE,67,0.0,6.0,95,0.00,,SKC,0.00,VWS V14.01,2013-10-30 07:30:00,
2013-10-30 02:35:00,35.3,34.0,29.99,ENE,67,0.0,4.0,95,0.00,,SKC,0.00,VWS V14.01,2013-10-30 07:35:00,
2013-10-30 02:40:00,35.3,34.0,30.00,ENE,67,0.0,4.0,95,0.00,,SKC,0.00,VWS V14.01,2013-10-30 07:40:00,
2013-10-30 02:45:00,35.3,34.0,30.00,ENE,67,0.0,4.0,95,0.00,,SKC,0.00,VWS V14.01,2013-10-30 07:45:00,
2013-10-30 02:50:00,35.3,34.0,30.00,ENE,67,0.0,4.0,95,0.00,,SKC,0.00,VWS V14.01,2013-10-30 07:50:00,
2013-10-30 02:55:00,35.3,34.0,30.00,ENE,67,1.0,4.0,95,0.00,,SKC,0.00,VWS V14.01,2013-10-30 07:55:00,
2013-10-30 03:00:00,35.3,34.0,29.99,ENE,67,2.0,5.0,95,0.01,,SKC,0.01,VWS V14.01,2013-10-30 08:00:00,
2013-10-30 03:05:00,35.3,34.0,29.99,ENE,67,4.0,5.0,95,0.01,,SKC,0.01,VWS V14.01,2013-10-30 08:05:00,
2013-10-30 03:10:00,35.3,34.0,29.99,ENE,67,4.0,5.0,95,0.01,,SKC,0.01,VWS V14.01,2013-10-30 08:10:00,
2013-10-30 03:15:00,35.3,34.0,29.99,ENE,67,4.0,5.0,95,0.01,,SKC,0.01,VWS V14.01,2013-10-30 08:15:00,
2013-10-30 03:20:00,35.3,34.0,29.99,ENE,67,4.0,6.0,95,0.01,,SKC,0.01,VWS V14.01,2013-10-30 08:20:00,
2013-10-30 03:25:00,35.3,34.0,29.99,ENE,67,2.0,6.0,95,0.01,,SKC,0.01,VWS V14.01,2013-10-30 08:25:00,
2013-10-30 03:30:00,35.4,34.1,29.98,ENE,67,5.0,6.0,95,0.01,,SKC,0.01,VWS V14.01,2013-10-30 08:30:00,
2013-10-30 03:35:00,35.4,34.1,29.98,ENE,67,6.0,6.0,95,0.01,,SKC,0.01,VWS V14.01,2013-10-30 08:35:00,
2013-10-30 03:40:00,35.3,34.0,29.97,ENE,67,4.0,6.0,95,0.01,,SKC,0.01,VWS V14.01,2013-10-30 08:40:00,
2013-10-30 03:45:00,35.3,34.0,29.97,ENE,67,5.0,7.0,95,0.01,,SKC,0.01,VWS V14.01,2013-10-30 08:45:00,
2013-10-30 03:50:00,35.3,34.0,29.97,ENE,67,4.0,7.0,95,0.01,,SKC,0.01,VWS V14.01,2013-10-30 08:50:00,
2013-10-30 03:55:00,35.3,34.0,29.97,ENE,67,4.0,7.0,95,0.01,,SKC,0.01,VWS V14.01,2013-10-30 08:55:00,
2013-10-30 04:00:00,35.3,34.0,29.97,ENE,67,4.0,7.0,95,0.01,,SKC,0.01,VWS V14.01,2013-10-30 09:00:00,
2013-10-30 04:05:00,35.3,34.0,29.97,ENE,67,4.0,5.0,95,0.00,,SKC,0.01,VWS V14.01,2013-10-30 09:05:00,
2013-10-30 04:10:00,35.3,34.0,29.97,ENE,67,0.0,5.0,95,0.00,,SKC,0.01,VWS V14.01,2013-10-30 09:10:00,
2013-10-30 04:15:00,35.2,33.9,29.96,ENE,67,2.0,5.0,95,0.00,,SKC,0.01,VWS V14.01,2013-10-30 09:15:00,
2013-10-30 04:21:00,35.2,33.9,29.96,ENE,67,1.0,5.0,95,0.00,,SKC,0.01,VWS V14.01,2013-10-30 09:21:00,
2013-10-30 04:26:00,35.3,34.0,29.96,ENE,67,4.0,5.0,95,0.00,,SKC,0.01,VWS V14.01,2013-10-30 09:26:00,
2013-10-30 04:30:00,35.4,34.1,29.98,ENE,67,4.0,6.0,95,0.01,,SKC,0.01,VWS V14.01,2013-10-30 09:30:00,
2013-10-30 04:31:00,35.4,34.1,29.96,ENE,67,4.0,5.0,95,0.00,,SKC,0.01,VWS V14.01,2013-10-30 09:31:00,
2013-10-30 04:36:00,35.5,34.2,29.96,ENE,67,1.0,5.0,95,0.00,,SKC,0.01,VWS V14.01,2013-10-30 09:36:00,
2013-10-30 04:41:00,35.5,34.2,29.96,ENE,67,3.0,5.0,95,0.00,,SKC,0.01,VWS V14.01,2013-10-30 09:41:00,
2013-10-30 04:46:00,35.4,34.1,29.96,ENE,67,0.0,5.0,95,0.00,,SKC,0.01,VWS V14.01,2013-10-30 09:46:00,
2013-10-30 04:51:00,35.4,34.1,29.96,ENE,67,2.0,5.0,95,0.00,,SKC,0.01,VWS V14.01,2013-10-30 09:51:00,
2013-10-30 04:56:00,35.5,34.2,29.96,ENE,67,2.0,5.0,95,0.00,,SKC,0.01,VWS V14.01,2013-10-30 09:56:00,
2013-10-30 05:00:00,35.3,34.0,29.97,ENE,67,2.0,7.0,95,0.01,,SKC,0.01,VWS V14.01,2013-10-30 10:00:00,
2013-10-30 05:01:00,35.5,34.2,29.96,ENE,67,2.0,5.0,95,0.00,,SKC,0.01,VWS V14.01,2013-10-30 10:01:00,
2013-10-30 05:06:00,35.5,34.2,29.96,ENE,67,2.0,4.0,95,0.00,,SKC,0.01,VWS V14.01,2013-10-30 10:06:00,
2013-10-30 05:11:00,35.6,34.3,29.96,ENE,67,1.0,4.0,95,0.00,,SKC,0.01,VWS V14.01,2013-10-30 10:11:00,
2013-10-30 05:16:00,35.7,34.4,29.95,ENE,67,0.0,5.0,95,0.00,,SKC,0.01,VWS V14.01,2013-10-30 10:16:00,
2013-10-30 05:21:00,35.7,34.4,29.95,ENE,67,4.0,5.0,95,0.00,,SKC,0.01,VWS V14.01,2013-10-30 10:21:00,
2013-10-30 05:26:00,35.7,34.4,29.95,ENE,67,3.0,5.0,95,0.00,,SKC,0.01,VWS V14.01,2013-10-30 10:26:00,
2013-10-30 05:30:00,35.4,34.1,29.96,ENE,67,4.0,5.0,95,0.00,,SKC,0.01,VWS V14.01,2013-10-30 10:30:00,
2013-10-30 05:31:00,35.8,34.5,29.95,ENE,67,0.0,5.0,95,0.00,,SKC,0.01,VWS V14.01,2013-10-30 10:31:00,
2013-10-30 05:36:00,36.0,34.7,29.96,ENE,67,0.0,0.0,95,0.00,,SKC,0.01,VWS V14.01,2013-10-30 10:36:00,
2013-10-30 05:41:00,36.1,34.8,29.95,ENE,67,0.0,4.0,95,0.00,,SKC,0.01,VWS V14.01,2013-10-30 10:41:00,
2013-10-30 05:46:00,36.0,34.7,29.95,ENE,67,0.0,4.0,95,0.00,,SKC,0.01,VWS V14.01,2013-10-30 10:46:00,
2013-10-30 05:51:00,35.9,34.6,29.95,ENE,67,2.0,4.0,95,0.00,,SKC,0.01,VWS V14.01,2013-10-30 10:51:00,
2013-10-30 05:56:00,35.9,34.6,29.95,ENE,67,4.0,5.0,95,0.00,,SKC,0.01,VWS V14.01,2013-10-30 10:56:00,
2013-10-30 06:00:00,35.5,34.2,29.96,ENE,67,2.0,5.0,95,0.00,,SKC,0.01,VWS V14.01,2013-10-30 11:00:00,
2013-10-30 06:01:00,36.0,34.7,29.95,ENE,67,4.0,5.0,95,0.00,,SKC,0.01,VWS V14.01,2013-10-30 11:01:00,
2013-10-30 06:06:00,36.0,34.7,29.95,ENE,67,4.0,6.0,95,0.00,,SKC,0.01,VWS V14.01,2013-10-30 11:06:00,
2013-10-30 06:11:00,36.1,34.8,29.94,ENE,67,5.0,6.0,95,0.00,,SKC,0.01,VWS V14.01,2013-10-30 11:11:00,
2013-10-30 06:16:00,36.1,34.8,29.94,ENE,67,4.0,6.0,95,0.00,,SKC,0.01,VWS V14.01,2013-10-30 11:16:00,
2013-10-30 06:21:00,36.2,34.9,29.94,ENE,67,5.0,6.0,95,0.00,,SKC,0.01,VWS V14.01,2013-10-30 11:21:00,
2013-10-30 06:26:00,36.2,34.9,29.93,ENE,67,5.0,7.0,95,0.00,,SKC,0.01,VWS V14.01,2013-10-30 11:26:00,
2013-10-30 06:30:00,35.8,34.5,29.95,ENE,67,0.0,5.0,95,0.00,,SKC,0.01,VWS V14.01,2013-10-30 11:30:00,
2013-10-30 06:31:00,36.2,34.9,29.94,ENE,67,3.0,4.0,95,0.00,,SKC,0.01,VWS V14.01,2013-10-30 11:31:00,
2013-10-30 06:36:00,36.2,34.9,29.93,ENE,67,2.0,4.0,95,0.00,,SKC,0.01,VWS V14.01,2013-10-30 11:36:00,
2013-10-30 06:41:00,36.3,35.0,29.93,ENE,67,0.0,5.0,95,0.00,,SKC,0.01,VWS V14.01,2013-10-30 11:41:00,
2013-10-30 06:46:00,36.4,35.1,29.93,ENE,67,4.0,5.0,95,0.00,,SKC,0.01,VWS V14.01,2013-10-30 11:46:00,
2013-10-30 06:52:00,36.4,35.1,29.93,ENE,67,0.0,5.0,95,0.00,,SKC,0.01,VWS V14.01,2013-10-30 11:52:00,
2013-10-30 06:57:00,36.4,35.1,29.93,ENE,67,1.0,5.0,95,0.00,,SKC,0.01,VWS V14.01,2013-10-30 11:57:00,
2013-10-30 07:00:00,36.0,34.7,29.95,ENE,67,5.0,6.0,95,0.00,,SKC,0.01,VWS V14.01,2013-10-30 12:00:00,
2013-10-30 07:02:00,36.4,35.1,29.93,ENE,67,0.0,0.0,95,0.00,,SKC,0.01,VWS V14.01,2013-10-30 12:02:00,
2013-10-30 07:07:00,36.4,35.1,29.93,ENE,67,0.0,2.0,95,0.00,,SKC,0.01,VWS V14.01,2013-10-30 12:07:00,
2013-10-30 07:12:00,36.4,35.1,29.93,ENE,67,2.0,4.0,95,0.00,,SKC,0.01,VWS V14.01,2013-10-30 12:12:00,
2013-10-30 07:17:00,36.4,35.1,29.93,ENE,67,2.0,5.0,95,0.00,,SKC,0.01,VWS V14.01,2013-10-30 12:17:00,
2013-10-30 07:22:00,36.4,35.1,29.93,ENE,67,0.0,5.0,95,0.00,,SKC,0.01,VWS V14.01,2013-10-30 12:22:00,
2013-10-30 07:27:00,36.5,35.2,29.92,ENE,67,4.0,6.0,95,0.00,,SKC,0.01,VWS V14.01,2013-10-30 12:27:00,
2013-10-30 07:30:00,36.2,34.9,29.94,ENE,67,0.0,7.0,95,0.00,,SKC,0.01,VWS V14.01,2013-10-30 12:30:00,
2013-10-30 07:32:00,36.5,35.2,29.92,ENE,67,6.0,6.0,95,0.00,,SKC,0.01,VWS V14.01,2013-10-30 12:32:00,
2013-10-30 07:37:00,36.5,35.2,29.92,ENE,67,4.0,6.0,95,0.00,,SKC,0.01,VWS V14.01,2013-10-30 12:37:00,
2013-10-30 07:42:00,36.6,35.3,29.92,ENE,67,5.0,6.0,95,0.00,,SKC,0.01,VWS V14.01,2013-10-30 12:42:00,
2013-10-30 07:47:00,36.6,35.3,29.91,ENE,67,4.0,6.0,95,0.00,,SKC,0.01,VWS V14.01,2013-10-30 12:47:00,
2013-10-30 07:52:00,36.8,35.5,29.91,ENE,67,2.0,6.0,95,0.00,,SKC,0.01,VWS V14.01,2013-10-30 12:52:00,
2013-10-30 07:57:00,36.8,35.5,29.91,ENE,67,4.0,6.0,95,0.00,,SKC,0.01,VWS V14.01,2013-10-30 12:57:00,
2013-10-30 08:00:00,36.4,35.1,29.93,ENE,67,0.0,5.0,95,0.00,,SKC,0.01,VWS V14.01,2013-10-30 13:00:00,
2013-10-30 08:02:00,36.7,35.4,29.91,ENE,67,0.0,0.0,95,0.00,,SKC,0.01,VWS V14.01,2013-10-30 13:02:00,
2013-10-30 08:07:00,36.7,35.4,29.91,ENE,67,0.0,5.0,95,0.00,,SKC,0.01,VWS V14.01,2013-10-30 13:07:00,
2013-10-30 08:12:00,36.7,35.4,29.91,ENE,67,0.0,5.0,95,0.00,,SKC,0.01,VWS V14.01,2013-10-30 13:12:00,
2013-10-30 08:17:00,36.7,35.4,29.92,ENE,67,0.0,5.0,95,0.00,,SKC,0.01,VWS V14.01,2013-10-30 13:17:00,
2013-10-30 08:22:00,36.7,35.4,29.92,ENE,67,0.0,5.0,95,0.00,,SKC,0.01,VWS V14.01,2013-10-30 13:22:00,
2013-10-30 08:27:00,36.7,35.4,29.92,ENE,67,0.0,5.0,95,0.00,,SKC,0.01,VWS V14.01,2013-10-30 13:27:00,
2013-10-30 08:30:00,36.5,35.2,29.92,ENE,67,4.0,6.0,95,0.00,,SKC,0.01,VWS V14.01,2013-10-30 13:30:00,
2013-10-30 08:32:00,36.8,35.5,29.92,ENE,67,3.0,3.0,95,0.00,,SKC,0.01,VWS V14.01,2013-10-30 13:32:00,
2013-10-30 08:37:00,36.8,35.5,29.92,ENE,67,0.0,3.0,95,0.00,,SKC,0.01,VWS V14.01,2013-10-30 13:37:00,
2013-10-30 08:43:00,36.8,35.5,29.92,ENE,67,0.0,3.0,95,0.01,,SKC,0.02,VWS V14.01,2013-10-30 13:43:00,
2013-10-30 08:48:00,36.9,35.6,29.92,ENE,67,0.0,3.0,95,0.01,,SKC,0.02,VWS V14.01,2013-10-30 13:48:00,
2013-10-30 08:53:00,36.9,35.6,29.92,ENE,67,1.0,5.0,95,0.01,,SKC,0.02,VWS V14.01,2013-10-30 13:53:00,
2013-10-30 08:58:00,37.1,35.8,29.91,ENE,67,0.0,5.0,95,0.01,,SKC,0.02,VWS V14.01,2013-10-30 13:58:00,
2013-10-30 09:00:00,36.7,35.4,29.92,ENE,67,0.0,6.0,95,0.00,,SKC,0.01,VWS V14.01,2013-10-30 14:00:00,
2013-10-30 09:03:00,37.1,35.8,29.92,ENE,67,1.0,5.0,95,0.01,,SKC,0.02,VWS V14.01,2013-10-30 14:03:00,
2013-10-30 09:08:00,37.1,36.1,29.92,ENE,67,4.0,5.0,96,0.01,,SKC,0.02,VWS V14.01,2013-10-30 14:08:00,
2013-10-30 09:13:00,37.2,35.9,29.92,ENE,67,6.0,6.0,95,0.01,,SKC,0.02,VWS V14.01,2013-10-30 14:13:00,
2013-10-30 09:18:00,37.2,35.9,29.92,ENE,67,5.0,6.0,95,0.01,,SKC,0.02,VWS V14.01,2013-10-30 14:18:00,
2013-10-30 09:23:00,37.3,36.0,29.92,ENE,67,5.0,6.0,95,0.01,,SKC,0.02,VWS V14.01,2013-10-30 14:23:00,
2013-10-30 09:28:00,37.3,36.0,29.92,ENE,67,4.0,7.0,95,0.01,,SKC,0.02,VWS V14.01,2013-10-30 14:28:00,
2013-10-30 09:30:00,36.8,35.5,29.92,ENE,67,0.0,5.0,95,0.00,,SKC,0.01,VWS V14.01,2013-10-30 14:30:00,
2013-10-30 09:33:00,37.4,36.1,29.92,ENE,67,4.0,6.0,95,0.01,,SKC,0.02,VWS V14.01,2013-10-30 14:33:00,
2013-10-30 09:38:00,37.5,36.5,29.91,ENE,67,6.0,7.0,96,0.01,,SKC,0.02,VWS V14.01,2013-10-30 14:38:00,
2013-10-30 09:43:00,37.7,36.7,29.91,ENE,67,6.0,7.0,96,0.01,,SKC,0.02,VWS V14.01,2013-10-30 14:43:00,
2013-10-30 09:48:00,37.8,36.8,29.91,ENE,67,6.0,8.0,96,0.01,,SKC,0.02,VWS V14.01,2013-10-30 14:48:00,
2013-10-30 09:53:00,37.9,36.6,29.90,ENE,67,6.0,8.0,95,0.01,,SKC,0.02,VWS V14.01,2013-10-30 14:53:00,
2013-10-30 09:58:00,38.0,36.7,29.91,ENE,67,4.0,8.0,95,0.01,,SKC,0.02,VWS V14.01,2013-10-30 14:58:00,
2013-10-30 10:00:00,37.2,35.9,29.92,ENE,67,5.0,5.0,95,0.01,,SKC,0.02,VWS V14.01,2013-10-30 15:00:00,
2013-10-30 10:03:00,38.0,36.7,29.91,ENE,67,5.0,6.0,95,0.00,,SKC,0.02,VWS V14.01,2013-10-30 15:03:00,
2013-10-30 10:08:00,38.2,37.2,29.91,ENE,67,4.0,6.0,96,0.00,,SKC,0.02,VWS V14.01,2013-10-30 15:08:00,
2013-10-30 10:13:00,38.3,37.3,29.91,ENE,67,6.0,6.0,96,0.00,,SKC,0.02,VWS V14.01,2013-10-30 15:13:00,
2013-10-30 10:18:00,38.4,37.4,29.91,ENE,67,5.0,7.0,96,0.00,,SKC,0.02,VWS V14.01,2013-10-30 15:18:00,
2013-10-30 10:23:00,38.4,37.4,29.91,ENE,67,4.0,7.0,96,0.00,,SKC,0.02,VWS V14.01,2013-10-30 15:23:00,
2013-10-30 10:28:00,38.4,37.1,29.91,ENE,67,0.0,7.0,95,0.00,,SKC,0.02,VWS V14.01,2013-10-30 15:28:00,
2013-10-30 10:30:00,37.4,36.1,29.92,ENE,67,5.0,7.0,95,0.01,,SKC,0.02,VWS V14.01,2013-10-30 15:30:00,
2013-10-30 10:33:00,38.5,37.2,29.91,ENE,67,2.0,4.0,95,0.00,,SKC,0.02,VWS V14.01,2013-10-30 15:33:00,
2013-10-30 10:38:00,38.6,37.3,29.91,ENE,67,3.0,5.0,95,0.00,,SKC,0.02,VWS V14.01,2013-10-30 15:38:00,
2013-10-30 10:43:00,38.6,37.3,29.90,ENE,67,0.0,5.0,95,0.00,,SKC,0.02,VWS V14.01,2013-10-30 15:43:00,
2013-10-30 10:48:00,38.7,37.4,29.90,ENE,67,0.0,5.0,95,0.00,,SKC,0.02,VWS V14.01,2013-10-30 15:48:00,
2013-10-30 10:54:00,38.7,37.4,29.89,ENE,67,0.0,5.0,95,0.00,,SKC,0.02,VWS V14.01,2013-10-30 15:54:00,
2013-10-30 10:59:00,38.8,37.8,29.89,ENE,67,2.0,5.0,96,0.00,,SKC,0.02,VWS V14.01,2013-10-30 15:59:00,
2013-10-30 11:00:00,38.0,36.7,29.91,ENE,67,5.0,8.0,95,0.01,,SKC,0.02,VWS V14.01,2013-10-30 16:00:00,
2013-10-30 11:04:00,38.8,37.8,29.89,ENE,67,0.0,4.0,96,0.00,,SKC,0.02,VWS V14.01,2013-10-30 16:04:00,
2013-10-30 11:09:00,38.9,37.9,29.88,ENE,67,3.0,4.0,96,0.00,,SKC,0.02,VWS V14.01,2013-10-30 16:09:00,
2013-10-30 11:14:00,38.9,37.9,29.88,ENE,67,4.0,5.0,96,0.00,,SKC,0.02,VWS V14.01,2013-10-30 16:14:00,
2013-10-30 11:19:00,39.1,37.8,29.87,ENE,67,4.0,5.0,95,0.00,,SKC,0.02,VWS V14.01,2013-10-30 16:19:00,
2013-10-30 11:24:00,39.2,37.9,29.86,ENE,67,7.0,7.0,95,0.00,,SKC,0.02,VWS V14.01,2013-10-30 16:24:00,
2013-10-30 11:29:00,39.3,38.0,29.86,ENE,67,4.0,7.0,95,0.00,,SKC,0.02,VWS V14.01,2013-10-30 16:29:00,
2013-10-30 11:30:00,38.5,37.2,29.91,ENE,67,3.0,7.0,95,0.00,,SKC,0.02,VWS V14.01,2013-10-30 16:30:00,
2013-10-30 11:34:00,39.4,38.1,29.85,ENE,67,5.0,6.0,95,0.00,,SKC,0.02,VWS V14.01,2013-10-30 16:34:00,
2013-10-30 11:39:00,39.5,38.5,29.85,ENE,67,5.0,7.0,96,0.00,,SKC,0.02,VWS V14.01,2013-10-30 16:39:00,
2013-10-30 11:44:00,39.6,38.6,29.84,ENE,67,7.0,7.0,96,0.00,,SKC,0.02,VWS V14.01,2013-10-30 16:44:00,
2013-10-30 11:49:00,39.8,38.5,29.84,ENE,67,8.0,9.0,95,0.00,,SKC,0.02,VWS V14.01,2013-10-30 16:49:00,
2013-10-30 11:54:00,40.0,38.7,29.83,ENE,67,7.0,9.0,95,0.00,,SKC,0.02,VWS V14.01,2013-10-30 16:54:00,
2013-10-30 11:59:00,40.2,39.2,29.82,ENE,67,6.0,9.0,96,0.00,,SKC,0.02,VWS V14.01,2013-10-30 16:59:00,
2013-10-30 12:00:00,38.8,37.8,29.89,ENE,67,1.0,5.0,96,0.00,,SKC,0.02,VWS V14.01,2013-10-30 17:00:00,
2013-10-30 12:04:00,40.5,39.2,29.81,ENE,67,7.0,11.0,95,0.00,,SKC,0.02,VWS V14.01,2013-10-30 17:04:00,
2013-10-30 12:09:00,40.7,39.7,29.81,ENE,67,8.0,11.0,96,0.00,,SKC,0.02,VWS V14.01,2013-10-30 17:09:00,
2013-10-30 12:14:00,40.9,39.6,29.81,ENE,67,6.0,11.0,95,0.00,,SKC,0.02,VWS V14.01,2013-10-30 17:14:00,
2013-10-30 12:19:00,41.0,39.7,29.81,ENE,67,6.0,11.0,95,0.00,,SKC,0.02,VWS V14.01,2013-10-30 17:19:00,
2013-10-30 12:24:00,41.1,39.8,29.81,ENE,67,5.0,11.0,95,0.00,,SKC,0.02,VWS V14.01,2013-10-30 17:24:00,
2013-10-30 12:29:00,41.2,40.2,29.82,ENE,67,2.0,11.0,96,0.00,,SKC,0.02,VWS V14.01,2013-10-30 17:29:00,
2013-10-30 12:30:00,39.3,38.0,29.85,ENE,67,6.0,8.0,95,0.00,,SKC,0.02,VWS V14.01,2013-10-30 17:30:00,
2013-10-30 12:34:00,41.3,40.2,29.81,ENE,67,5.0,6.0,96,0.00,,SKC,0.02,VWS V14.01,2013-10-30 17:34:00,
2013-10-30 12:39:00,41.3,40.2,29.79,ENE,67,8.0,8.0,96,0.00,,SKC,0.02,VWS V14.01,2013-10-30 17:39:00,
2013-10-30 12:45:00,41.5,40.5,29.77,ENE,67,8.0,10.0,96,0.00,,SKC,0.02,VWS V14.01,2013-10-30 17:45:00,
2013-10-30 12:50:00,41.6,40.3,29.78,ENE,67,7.0,11.0,95,0.00,,SKC,0.02,VWS V14.01,2013-10-30 17:50:00,
2013-10-30 12:55:00,41.7,40.4,29.79,ENE,67,4.0,11.0,95,0.00,,SKC,0.02,VWS V14.01,2013-10-30 17:55:00,
2013-10-30 13:00:00,41.8,40.5,29.80,ENE,67,5.0,11.0,95,0.00,,SKC,0.02,VWS V14.01,2013-10-30 18:00:00,
2013-10-30 13:05:00,41.8,40.8,29.80,ENE,67,6.0,6.0,96,0.00,,SKC,0.02,VWS V14.01,2013-10-30 18:05:00,
2013-10-30 13:10:00,41.9,40.8,29.80,ENE,67,5.0,6.0,96,0.00,,SKC,0.02,VWS V14.01,2013-10-30 18:10:00,
2013-10-30 13:15:00,42.0,40.9,29.80,ENE,67,2.0,6.0,96,0.00,,SKC,0.02,VWS V14.01,2013-10-30 18:15:00,
2013-10-30 13:20:00,42.0,40.9,29.80,ENE,67,2.0,6.0,96,0.00,,SKC,0.02,VWS V14.01,2013-10-30 18:20:00,
2013-10-30 13:25:00,42.2,40.9,29.80,ENE,67,0.0,6.0,95,0.00,,SKC,0.02,VWS V14.01,2013-10-30 18:25:00,
2013-10-30 13:30:00,42.2,40.9,29.80,ENE,67,2.0,6.0,95,0.00,,SKC,0.02,VWS V14.01,2013-10-30 18:30:00,
2013-10-30 13:35:00,42.3,41.2,29.79,ENE,67,0.0,2.0,96,0.00,,SKC,0.02,VWS V14.01,2013-10-30 18:35:00,
2013-10-30 13:40:00,42.4,41.3,29.80,ENE,67,0.0,2.0,96,0.00,,SKC,0.02,VWS V14.01,2013-10-30 18:40:00,
2013-10-30 13:45:00,42.5,41.4,29.80,ENE,67,0.0,2.0,96,0.00,,SKC,0.02,VWS V14.01,2013-10-30 18:45:00,
2013-10-30 13:50:00,42.6,41.3,29.80,ENE,67,0.0,2.0,95,0.00,,SKC,0.02,VWS V14.01,2013-10-30 18:50:00,
2013-10-30 13:55:00,42.8,41.5,29.79,ENE,67,2.0,3.0,95,0.00,,SKC,0.02,VWS V14.01,2013-10-30 18:55:00,
2013-10-30 14:00:00,42.8,41.5,29.79,ENE,67,2.0,4.0,95,0.00,,SKC,0.02,VWS V14.01,2013-10-30 19:00:00,
2013-10-30 14:05:00,42.8,41.5,29.79,ENE,67,2.0,5.0,95,0.00,,SKC,0.02,VWS V14.01,2013-10-30 19:05:00,
2013-10-30 14:10:00,42.9,41.6,29.78,ENE,67,4.0,5.0,95,0.00,,SKC,0.02,VWS V14.01,2013-10-30 19:10:00,
2013-10-30 14:15:00,42.9,41.6,29.78,ENE,67,0.0,5.0,95,0.00,,SKC,0.02,VWS V14.01,2013-10-30 19:15:00,
2013-10-30 14:20:00,43.0,41.9,29.78,ENE,67,0.0,5.0,96,0.00,,SKC,0.02,VWS V14.01,2013-10-30 19:20:00,
2013-10-30 14:25:00,43.1,42.0,29.77,ENE,67,0.0,5.0,96,0.00,,SKC,0.02,VWS V14.01,2013-10-30 19:25:00,
2013-10-30 14:30:00,43.1,42.0,29.77,ENE,67,2.0,5.0,96,0.00,,SKC,0.02,VWS V14.01,2013-10-30 19:30:00,
2013-10-30 14:35:00,43.2,42.1,29.76,ENE,67,4.0,5.0,96,0.00,,SKC,0.02,VWS V14.01,2013-10-30 19:35:00,
2013-10-30 14:40:00,43.3,42.0,29.76,ENE,67,3.0,5.0,95,0.00,,SKC,0.02,VWS V14.01,2013-10-30 19:40:00,
2013-10-30 14:45:00,43.3,42.0,29.76,ENE,67,4.0,5.0,95,0.00,,SKC,0.02,VWS V14.01,2013-10-30 19:45:00,
2013-10-30 14:50:00,43.4,42.1,29.76,ENE,67,0.0,5.0,95,0.00,,SKC,0.02,VWS V14.01,2013-10-30 19:50:00,
2013-10-30 14:55:00,43.4,42.1,29.76,ENE,67,0.0,5.0,95,0.00,,SKC,0.02,VWS V14.01,2013-10-30 19:55:00,
2013-10-30 15:00:00,42.8,41.5,29.79,ENE,67,2.0,4.0,95,0.00,,SKC,0.02,VWS V14.01,2013-10-30 20:00:00,
2013-10-30 15:01:00,43.5,42.2,29.75,ENE,67,0.0,5.0,95,0.00,,SKC,0.02,VWS V14.01,2013-10-30 20:01:00,
2013-10-30 15:06:00,43.6,42.3,29.75,ENE,67,0.0,0.0,95,0.00,,SKC,0.02,VWS V14.01,2013-10-30 20:06:00,
2013-10-30 15:11:00,43.6,42.5,29.74,ENE,67,2.0,2.0,96,0.00,,SKC,0.02,VWS V14.01,2013-10-30 20:11:00,
2013-10-30 15:16:00,43.6,42.5,29.73,ENE,67,1.0,4.0,96,0.00,,SKC,0.02,VWS V14.01,2013-10-30 20:16:00,
2013-10-30 15:21:00,43.6,42.5,29.73,ENE,67,4.0,5.0,96,0.00,,SKC,0.02,VWS V14.01,2013-10-30 20:21:00,
2013-10-30 15:26:00,43.7,42.6,29.73,ENE,67,2.0,5.0,96,0.00,,SKC,0.02,VWS V14.01,2013-10-30 20:26:00,
2013-10-30 15:30:00,43.1,42.0,29.77,ENE,67,5.0,5.0,96,0.00,,SKC,0.02,VWS V14.01,2013-10-30 20:30:00,
2013-10-30 15:31:00,43.8,42.7,29.73,ENE,67,2.0,5.0,96,0.00,,SKC,0.02,VWS V14.01,2013-10-30 20:31:00,
2013-10-30 15:36:00,43.8,42.7,29.73,ENE,67,1.0,4.0,96,0.00,,SKC,0.02,VWS V14.01,2013-10-30 20:36:00,
2013-10-30 15:41:00,43.8,42.7,29.72,ENE,67,0.0,4.0,96,0.00,,SKC,0.02,VWS V14.01,2013-10-30 20:41:00,
2013-10-30 15:46:00,43.8,42.7,29.72,ENE,67,2.0,4.0,96,0.00,,SKC,0.02,VWS V14.01,2013-10-30 20:46:00,
2013-10-30 15:51:00,43.9,42.8,29.72,ENE,67,0.0,4.0,96,0.00,,SKC,0.02,VWS V14.01,2013-10-30 20:51:00,
2013-10-30 15:56:00,43.9,42.8,29.71,ENE,67,2.0,5.0,96,0.00,,SKC,0.02,VWS V14.01,2013-10-30 20:56:00,
2013-10-30 16:00:00,43.5,42.2,29.75,ENE,67,0.0,5.0,95,0.00,,SKC,0.02,VWS V14.01,2013-10-30 21:00:00,
2013-10-30 16:01:00,44.0,42.9,29.70,ENE,67,0.0,1.0,96,0.00,,SKC,0.02,VWS V14.01,2013-10-30 21:01:00,
2013-10-30 16:06:00,44.0,42.9,29.70,ENE,67,1.0,4.0,96,0.00,,SKC,0.02,VWS V14.01,2013-10-30 21:06:00,
2013-10-30 16:11:00,44.1,43.0,29.71,ENE,67,2.0,4.0,96,0.00,,SKC,0.02,VWS V14.01,2013-10-30 21:11:00,
2013-10-30 16:16:00,44.1,43.0,29.71,ENE,67,0.0,4.0,96,0.00,,SKC,0.02,VWS V14.01,2013-10-30 21:16:00,
2013-10-30 16:21:00,44.2,43.1,29.70,ENE,67,0.0,4.0,96,0.00,,SKC,0.02,VWS V14.01,2013-10-30 21:21:00,
2013-10-30 16:26:00,44.2,43.1,29.70,ENE,67,5.0,5.0,96,0.00,,SKC,0.02,VWS V14.01,2013-10-30 21:26:00,
2013-10-30 16:30:00,43.8,42.7,29.73,ENE,67,2.0,5.0,96,0.00,,SKC,0.02,VWS V14.01,2013-10-30 21:30:00,
2013-10-30 16:31:00,44.3,43.2,29.70,ENE,67,4.0,4.0,96,0.00,,SKC,0.02,VWS V14.01,2013-10-30 21:31:00,
2013-10-30 16:37:00,44.3,43.2,29.69,ENE,67,2.0,5.0,96,0.00,,SKC,0.02,VWS V14.01,2013-10-30 21:37:00,
2013-10-30 16:42:00,44.3,43.2,29.69,ENE,67,0.0,5.0,96,0.00,,SKC,0.02,VWS V14.01,2013-10-30 21:42:00,
2013-10-30 16:47:00,44.4,43.3,29.69,ENE,67,2.0,5.0,96,0.00,,SKC,0.02,VWS V14.01,2013-10-30 21:47:00,
2013-10-30 16:52:00,44.5,43.4,29.69,ENE,67,1.0,5.0,96,0.00,,SKC,0.02,VWS V14.01,2013-10-30 21:52:00,
2013-10-30 16:57:00,44.6,43.3,29.69,ENE,67,0.0,5.0,95,0.00,,SKC,0.02,VWS V14.01,2013-10-30 21:57:00,
2013-10-30 17:00:00,44.0,42.9,29.71,ENE,67,1.0,5.0,96,0.00,,SKC,0.02,VWS V14.01,2013-10-30 22:00:00,
2013-10-30 17:02:00,44.6,43.3,29.69,ENE,67,2.0,2.0,95,0.00,,SKC,0.02,VWS V14.01,2013-10-30 22:02:00,
2013-10-30 17:07:00,44.7,43.4,29.69,ENE,67,1.0,4.0,95,0.00,,SKC,0.02,VWS V14.01,2013-10-30 22:07:00,
2013-10-30 17:12:00,44.7,43.4,29.69,ENE,67,0.0,4.0,95,0.00,,SKC,0.02,VWS V14.01,2013-10-30 22:12:00,
2013-10-30 17:17:00,45.0,43.9,29.69,ENE,67,0.0,4.0,96,0.00,,SKC,0.02,VWS V14.01,2013-10-30 22:17:00,
2013-10-30 17:22:00,45.0,43.9,29.69,ENE,67,0.0,4.0,96,0.00,,SKC,0.02,VWS V14.01,2013-10-30 22:22:00,
2013-10-30 17:27:00,44.9,43.8,29.68,ENE,67,2.0,4.0,96,0.00,,SKC,0.02,VWS V14.01,2013-10-30 22:27:00,
2013-10-30 17:30:00,44.3,43.2,29.70,ENE,67,2.0,5.0,96,0.00,,SKC,0.02,VWS V14.01,2013-10-30 22:30:00,
2013-10-30 17:32:00,44.9,43.8,29.68,ENE,67,2.0,3.0,96,0.00,,SKC,0.02,VWS V14.01,2013-10-30 22:32:00,
2013-10-30 17:37:00,44.9,43.8,29.67,ENE,67,4.0,5.0,96,0.00,,SKC,0.02,VWS V14.01,2013-10-30 22:37:00,
2013-10-30 17:42:00,44.9,43.8,29.66,ENE,67,3.0,5.0,96,0.00,,SKC,0.02,VWS V14.01,2013-10-30 22:42:00,
2013-10-30 17:47:00,45.0,43.9,29.67,ENE,67,4.0,5.0,96,0.00,,SKC,0.02,VWS V14.01,2013-10-30 22:47:00,
2013-10-30 17:52:00,45.0,43.9,29.67,ENE,67,4.0,5.0,96,0.00,,SKC,0.02,VWS V14.01,2013-10-30 22:52:00,
2013-10-30 17:57:00,45.0,43.9,29.67,ENE,67,4.0,5.0,96,0.00,,SKC,0.02,VWS V14.01,2013-10-30 22:57:00,
2013-10-30 18:00:00,44.6,43.3,29.69,ENE,67,0.0,5.0,95,0.00,,SKC,0.02,VWS V14.01,2013-10-30 23:00:00,
2013-10-30 18:02:00,45.0,43.9,29.67,ENE,67,4.0,6.0,96,0.00,,SKC,0.02,VWS V14.01,2013-10-30 23:02:00,
2013-10-30 18:09:00,45.3,44.0,29.67,ENE,67,3.0,6.0,95,0.00,,SKC,0.02,VWS V14.01,2013-10-30 23:09:00,
2013-10-30 18:14:00,45.4,44.3,29.68,ENE,67,5.0,6.0,96,0.00,,SKC,0.02,VWS V14.01,2013-10-30 23:14:00,
2013-10-30 18:19:00,45.5,44.4,29.67,ENE,67,0.0,6.0,96,0.00,,SKC,0.02,VWS V14.01,2013-10-30 23:19:00,
2013-10-30 18:24:00,45.6,44.5,29.67,ENE,67,0.0,6.0,96,0.00,,SKC,0.02,VWS V14.01,2013-10-30 23:24:00,
2013-10-30 18:29:00,45.6,44.5,29.67,ENE,67,1.0,6.0,96,0.00,,SKC,0.02,VWS V14.01,2013-10-30 23:29:00,
2013-10-30 18:30:00,44.9,43.8,29.68,ENE,67,1.0,4.0,96,0.00,,SKC,0.02,VWS V14.01,2013-10-30 23:30:00,
2013-10-30 18:34:00,45.6,44.5,29.67,ENE,67,0.0,4.0,96,0.00,,SKC,0.02,VWS V14.01,2013-10-30 23:34:00,
2013-10-30 18:39:00,45.6,44.5,29.67,ENE,67,4.0,4.0,96,0.00,,SKC,0.02,VWS V14.01,2013-10-30 23:39:00,
2013-10-30 18:44:00,45.6,44.5,29.67,ENE,67,4.0,4.0,96,0.00,,SKC,0.02,VWS V14.01,2013-10-30 23:44:00,
2013-10-30 18:49:00,45.7,44.6,29.67,ENE,67,3.0,5.0,96,0.00,,SKC,0.02,VWS V14.01,2013-10-30 23:49:00,
2013-10-30 18:54:00,45.7,44.3,29.68,ENE,67,0.0,5.0,95,0.00,,SKC,0.02,VWS V14.01,2013-10-30 23:54:00,
2013-10-30 18:59:00,45.7,44.3,29.68,ENE,67,1.0,5.0,95,0.00,,SKC,0.02,VWS V14.01,2013-10-30 23:59:00,
2013-10-30 19:00:00,45.0,43.9,29.67,ENE,67,0.0,5.0,96,0.00,,SKC,0.02,VWS V14.01,2013-10-31 00:00:00,
2013-10-30 19:04:00,45.7,44.6,29.67,ENE,67,5.0,6.0,96,0.00,,SKC,0.02,VWS V14.01,2013-10-31 00:04:00,
2013-10-30 19:09:00,45.7,44.6,29.67,ENE,67,7.0,7.0,96,0.00,,SKC,0.02,VWS V14.01,2013-10-31 00:09:00,
2013-10-30 19:14:00,45.6,44.5,29.67,ENE,67,4.0,8.0,96,0.00,,SKC,0.02,VWS V14.01,2013-10-31 00:14:00,
2013-10-30 19:19:00,45.6,44.5,29.67,ENE,67,4.0,8.0,96,0.01,,SKC,0.03,VWS V14.01,2013-10-31 00:19:00,
2013-10-30 19:24:00,45.7,44.6,29.66,ENE,67,0.0,8.0,96,0.01,,SKC,0.03,VWS V14.01,2013-10-31 00:24:00,
2013-10-30 19:29:00,45.8,44.5,29.66,ENE,67,0.0,8.0,95,0.01,,SKC,0.03,VWS V14.01,2013-10-31 00:29:00,
2013-10-30 19:30:00,45.6,44.5,29.67,ENE,67,0.0,6.0,96,0.00,,SKC,0.02,VWS V14.01,2013-10-31 00:30:00,
2013-10-30 19:34:00,45.8,44.5,29.66,ENE,67,0.0,0.0,95,0.01,,SKC,0.03,VWS V14.01,2013-10-31 00:34:00,
2013-10-30 19:39:00,45.8,44.5,29.66,ENE,67,0.0,0.0,95,0.01,,SKC,0.03,VWS V14.01,2013-10-31 00:39:00,
2013-10-30 19:44:00,45.8,44.5,29.66,ENE,67,0.0,0.0,95,0.01,,SKC,0.03,VWS V14.01,2013-10-31 00:44:00,
2013-10-30 19:49:00,45.8,44.5,29.66,ENE,67,0.0,0.0,95,0.01,,SKC,0.03,VWS V14.01,2013-10-31 00:49:00,
2013-10-30 19:54:00,45.8,44.5,29.65,ENE,67,0.0,0.0,95,0.01,,SKC,0.03,VWS V14.01,2013-10-31 00:54:00,
2013-10-30 20:00:00,45.8,44.5,29.65,ENE,67,3.0,4.0,95,0.01,,SKC,0.03,VWS V14.01,2013-10-31 01:00:00,
2013-10-30 20:05:00,45.8,44.5,29.64,ENE,67,0.0,2.0,95,0.01,,SKC,0.03,VWS V14.01,2013-10-31 01:05:00,
2013-10-30 20:10:00,45.8,44.5,29.64,ENE,67,2.0,4.0,95,0.01,,SKC,0.03,VWS V14.01,2013-10-31 01:10:00,
2013-10-30 20:15:00,45.8,44.5,29.64,ENE,68,8.0,9.0,95,0.01,,SKC,0.03,VWS V14.01,2013-10-31 01:15:00,
2013-10-30 20:20:00,46.0,44.9,29.64,ESE,121,10.0,10.0,96,0.01,,SKC,0.03,VWS V14.01,2013-10-31 01:20:00,
2013-10-30 20:25:00,46.0,44.7,29.65,ESE,123,5.0,10.0,95,0.01,,SKC,0.03,VWS V14.01,2013-10-31 01:25:00,
2013-10-30 20:30:00,45.9,44.5,29.64,ESE,123,8.0,10.0,95,0.01,,SKC,0.03,VWS V14.01,2013-10-31 01:30:00,
2013-10-30 20:35:00,45.8,44.5,29.64,SE,124,5.0,7.0,95,0.00,,SKC,0.03,VWS V14.01,2013-10-31 01:35:00,
2013-10-30 20:40:00,45.7,44.6,29.64,SE,124,5.0,8.0,96,0.00,,SKC,0.03,VWS V14.01,2013-10-31 01:40:00,
2013-10-30 20:45:00,45.6,44.5,29.64,SE,124,0.0,8.0,96,0.00,,SKC,0.03,VWS V14.01,2013-10-31 01:45:00,
2013-10-30 20:50:00,45.5,44.4,29.64,SE,124,0.0,8.0,96,0.00,,SKC,0.03,VWS V14.01,2013-10-31 01:50:00,
2013-10-30 20:55:00,45.4,44.3,29.64,SE,124,0.0,8.0,96,0.00,,SKC,0.03,VWS V14.01,2013-10-31 01:55:00,
2013-10-30 21:00:00,45.4,44.3,29.64,SE,124,0.0,8.0,96,0.00,,SKC,0.03,VWS V14.01,2013-10-31 02:00:00,
2013-10-30 21:05:00,45.4,44.3,29.63,SE,124,0.0,0.0,96,0.00,,SKC,0.03,VWS V14.01,2013-10-31 02:05:00,
2013-10-30 21:10:00,45.4,44.3,29.63,SE,124,0.0,0.0,96,0.00,,SKC,0.03,VWS V14.01,2013-10-31 02:10:00,
2013-10-30 21:15:00,45.4,44.3,29.63,SE,124,0.0,0.0,96,0.00,,SKC,0.03,VWS V14.01,2013-10-31 02:15:00,
2013-10-30 21:20:00,45.4,44.3,29.63,SE,124,0.0,0.0,96,0.00,,SKC,0.03,VWS V14.01,2013-10-31 02:20:00,
2013-10-30 21:26:00,45.4,44.3,29.62,SE,124,0.0,0.0,96,0.00,,SKC,0.03,VWS V14.01,2013-10-31 02:26:00,
2013-10-30 21:30:00,45.9,44.5,29.64,ESE,123,7.0,10.0,95,0.01,,SKC,0.03,VWS V14.01,2013-10-31 02:30:00,
2013-10-30 21:31:00,45.4,44.0,29.62,SE,124,0.0,0.0,95,0.00,,SKC,0.03,VWS V14.01,2013-10-31 02:31:00,
2013-10-30 21:36:00,45.5,44.4,29.61,SE,124,0.0,0.0,96,0.00,,SKC,0.03,VWS V14.01,2013-10-31 02:36:00,
2013-10-30 21:41:00,45.6,44.5,29.61,SE,124,0.0,0.0,96,0.00,,SKC,0.03,VWS V14.01,2013-10-31 02:41:00,
2013-10-30 21:46:00,45.7,44.3,29.61,SE,124,0.0,2.0,95,0.00,,SKC,0.03,VWS V14.01,2013-10-31 02:46:00,
2013-10-30 21:51:00,45.9,44.5,29.61,SE,124,3.0,3.0,95,0.00,,SKC,0.03,VWS V14.01,2013-10-31 02:51:00,
2013-10-30 21:56:00,46.0,44.9,29.61,SE,124,4.0,5.0,96,0.00,,SKC,0.03,VWS V14.01,2013-10-31 02:56:00,
2013-10-30 22:00:00,45.4,44.3,29.64,SE,124,0.0,8.0,96,0.00,,SKC,0.03,VWS V14.01,2013-10-31 03:00:00,
2013-10-30 22:01:00,46.1,45.0,29.61,SE,124,4.0,5.0,96,0.00,,SKC,0.03,VWS V14.01,2013-10-31 03:01:00,
2013-10-30 22:06:00,46.2,45.1,29.61,SE,124,0.0,5.0,96,0.00,,SKC,0.03,VWS V14.01,2013-10-31 03:06:00,
2013-10-30 22:07:00,46.2,45.1,29.61,SE,124,0.0,5.0,96,0.00,,SKC,0.03,VWS V14.01,2013-10-31 03:07:00,
2013-10-30 22:12:00,46.2,45.1,29.61,SE,124,0.0,5.0,96,0.00,,SKC,0.03,VWS V14.01,2013-10-31 03:12:00,
2013-10-30 22:17:00,46.2,45.1,29.61,SE,124,0.0,5.0,96,0.00,,SKC,0.03,VWS V14.01,2013-10-31 03:17:00,
2013-10-30 22:22:00,46.1,45.0,29.60,SE,124,0.0,5.0,96,0.00,,SKC,0.03,VWS V14.01,2013-10-31 03:22:00,
2013-10-30 22:27:00,46.1,45.0,29.60,SE,124,0.0,5.0,96,0.00,,SKC,0.03,VWS V14.01,2013-10-31 03:27:00,
2013-10-30 22:30:00,45.4,44.3,29.62,SE,124,0.0,0.0,96,0.00,,SKC,0.03,VWS V14.01,2013-10-31 03:30:00,
2013-10-30 22:32:00,45.9,44.5,29.61,SE,124,0.0,0.0,95,0.00,,SKC,0.03,VWS V14.01,2013-10-31 03:32:00,
2013-10-30 22:37:00,45.8,44.7,29.60,SE,124,0.0,0.0,96,0.00,,SKC,0.03,VWS V14.01,2013-10-31 03:37:00,
2013-10-30 22:42:00,45.8,44.7,29.60,SE,124,0.0,0.0,96,0.00,,SKC,0.03,VWS V14.01,2013-10-31 03:42:00,
2013-10-30 22:47:00,45.7,44.6,29.60,SE,124,0.0,0.0,96,0.00,,SKC,0.03,VWS V14.01,2013-10-31 03:47:00,
2013-10-30 22:52:00,45.7,44.6,29.60,SE,124,0.0,0.0,96,0.00,,SKC,0.03,VWS V14.01,2013-10-31 03:52:00,
2013-10-30 22:57:00,45.7,44.6,29.59,SE,124,0.0,0.0,96,0.00,,SKC,0.03,VWS V14.01,2013-10-31 03:57:00,
2013-10-30 23:00:00,46.1,45.0,29.61,SE,124,5.0,5.0,96,0.00,,SKC,0.03,VWS V14.01,2013-10-31 04:00:00,
2013-10-30 23:01:00,45.7,44.6,29.60,SE,124,0.0,0.0,96,0.00,,SKC,0.03,VWS V14.01,2013-10-31 04:01:00,
2013-10-30 23:02:00,45.7,44.6,29.59,SE,124,0.0,0.0,96,0.00,,SKC,0.03,VWS V14.01,2013-10-31 04:02:00,
2013-10-30 23:03:00,45.7,44.6,29.59,SE,124,0.0,0.0,96,0.00,,SKC,0.03,VWS V14.01,2013-10-31 04:03:00,
2013-10-30 23:05:00,45.7,44.6,29.59,SE,124,0.0,0.0,96,0.00,,SKC,0.03,VWS V14.01,2013-10-31 04:05:00,
2013-10-30 23:10:00,45.8,44.7,29.58,SE,124,0.0,0.0,96,0.00,,SKC,0.03,VWS V14.01,2013-10-31 04:10:00,
2013-10-30 23:13:00,45.7,44.6,29.58,SE,124,0.0,0.0,96,0.00,,SKC,0.03,VWS V14.01,2013-10-31 04:13:00,
2013-10-30 23:18:00,45.7,44.6,29.58,SE,124,0.0,0.0,96,0.01,,SKC,0.04,VWS V14.01,2013-10-31 04:18:00,
2013-10-30 23:23:00,45.8,44.7,29.58,SE,124,0.0,0.0,96,0.01,,SKC,0.04,VWS V14.01,2013-10-31 04:23:00,
2013-10-30 23:28:00,45.8,44.7,29.57,SE,124,0.0,0.0,96,0.01,,SKC,0.04,VWS V14.01,2013-10-31 04:28:00,
2013-10-30 23:30:00,46.0,44.7,29.61,SE,124,0.0,5.0,95,0.00,,SKC,0.03,VWS V14.01,2013-10-31 04:30:00,
2013-10-30 23:33:00,45.8,44.7,29.57,SE,124,0.0,0.0,96,0.01,,SKC,0.04,VWS V14.01,2013-10-31 04:33:00,
2013-10-30 23:38:00,45.8,44.7,29.57,SE,124,0.0,0.0,96,0.01,,SKC,0.04,VWS V14.01,2013-10-31 04:38:00,
2013-10-30 23:43:00,45.7,44.6,29.57,SE,124,0.0,0.0,96,0.01,,SKC,0.04,VWS V14.01,2013-10-31 04:43:00,
2013-10-30 23:48:00,45.8,44.7,29.57,SE,124,0.0,0.0,96,0.01,,SKC,0.04,VWS V14.01,2013-10-31 04:48:00,
2013-10-30 23:53:00,45.8,44.7,29.57,SE,124,0.0,0.0,96,0.01,,SKC,0.04,VWS V14.01,2013-10-31 04:53:00,
2013-10-30 23:58:00,45.9,44.5,29.57,SE,124,0.0,0.0,95,0.01,,SKC,0.04,VWS V14.01,2013-10-31 04:58:00,